User: anonymous   Login
Location: Unspecified
(0.0000°N, 0.0000°E)
Time: 23:01:57
(UTC+00:00)
Language:

STARLINK-4430 - Orbit

View from above orbital plane
View from above orbital plane
View from above satellite
View from above satellite

Ground track
Ground track

The orbit is defined by the following mean orbital elements,

1 53485U          26145.29180596 +.00000000 +00000-0 -10073-3 0 00001
2 53485  97.4466 265.2578 0001255 154.2363 205.8927 15.05663561    06
Epoch (UTC): 25 May 2026 07:00:12
Eccentricity: 0.0001255
inclination: 97.4466°
perigee height: 549 km
apogee height: 550 km
right ascension of ascending node: 265.2578°
argument of perigee: 154.2363°
revolutions per day: 15.05663561
mean anomaly at epoch: 205.8927°

The dashed part of the orbit path shows where the satellite is in the earth's shadow,  

DLR